Time,TemperatureF,DewpointF,PressureIn,WindDirection,WindDirectionDegrees,WindSpeedMPH,WindSpeedGustMPH,Humidity,HourlyPrecipIn,Conditions,Clouds,dailyrainin,SoftwareType,DateUTC
2013-01-30 00:03:00,64.0,58.0,29.99,SE,136,5.0,-999.0,82,-99.99,,,-99.99,,2013-01-30 05:03:00,
2013-01-30 00:12:00,64.0,58.0,29.99,SE,136,5.0,-999.0,82,-99.99,,,-99.99,,2013-01-30 05:12:00,
2013-01-30 00:22:00,64.0,59.0,29.99,SSE,159,3.0,-999.0,83,-99.99,,,-99.99,,2013-01-30 05:22:00,
2013-01-30 00:32:00,64.0,59.0,29.99,SSE,155,2.0,-999.0,83,-99.99,,,-99.99,,2013-01-30 05:32:00,
2013-01-30 00:43:00,64.0,59.0,29.99,SSE,155,2.0,-999.0,83,-99.99,,,-99.99,,2013-01-30 05:43:00,
2013-01-30 00:52:00,64.0,59.0,29.98,SSE,155,4.0,-999.0,83,-99.99,,,-99.99,,2013-01-30 05:52:00,
2013-01-30 01:02:00,65.0,60.0,29.97,SSE,163,5.0,-999.0,83,-99.99,,,-99.99,,2013-01-30 06:02:00,
2013-01-30 01:12:00,65.0,60.0,29.97,SSE,163,5.0,-999.0,83,-99.99,,,-99.99,,2013-01-30 06:12:00,
2013-01-30 01:22:00,65.0,60.0,29.96,SSE,162,6.0,-999.0,83,-99.99,,,-99.99,,2013-01-30 06:22:00,
2013-01-30 01:32:00,65.0,60.0,29.96,South,176,7.0,-999.0,83,-99.99,,,-99.99,,2013-01-30 06:32:00,
2013-01-30 01:42:00,65.0,60.0,29.96,South,176,7.0,-999.0,83,-99.99,,,-99.99,,2013-01-30 06:42:00,
2013-01-30 01:52:00,65.0,60.0,29.96,SSE,153,8.0,-999.0,84,-99.99,,,-99.99,,2013-01-30 06:52:00,
2013-01-30 02:02:00,65.0,60.0,29.94,SSE,156,8.0,-999.0,84,-99.99,,,-99.99,,2013-01-30 07:02:00,
2013-01-30 02:11:00,65.0,60.0,29.94,SSE,156,8.0,-999.0,84,-99.99,,,-99.99,,2013-01-30 07:11:00,
2013-01-30 02:22:00,65.0,60.0,29.94,SSE,159,8.0,-999.0,85,-99.99,,,-99.99,,2013-01-30 07:22:00,
2013-01-30 02:32:00,64.0,59.0,29.93,SSE,148,6.0,-999.0,85,-99.99,,,-99.99,,2013-01-30 07:32:00,
2013-01-30 02:42:00,64.0,59.0,29.93,SSE,148,6.0,-999.0,85,-99.99,,,-99.99,,2013-01-30 07:42:00,
2013-01-30 02:52:00,64.0,59.0,29.93,SSW,209,7.0,-999.0,85,-99.99,,,-99.99,,2013-01-30 07:52:00,
2013-01-30 03:02:00,64.0,60.0,29.92,SSE,151,7.0,-999.0,86,-99.99,,,-99.99,,2013-01-30 08:02:00,
2013-01-30 03:11:00,64.0,60.0,29.92,SSE,151,7.0,-999.0,86,-99.99,,,-99.99,,2013-01-30 08:11:00,
2013-01-30 03:22:00,64.0,60.0,29.92,ESE,103,7.0,-999.0,86,-99.99,,,-99.99,,2013-01-30 08:22:00,
2013-01-30 03:32:00,64.0,60.0,29.91,SSW,205,6.0,-999.0,86,-99.99,,,-99.99,,2013-01-30 08:32:00,
2013-01-30 03:42:00,64.0,60.0,29.91,SSW,205,6.0,-999.0,86,-99.99,,,-99.99,,2013-01-30 08:42:00,
2013-01-30 03:52:00,64.0,60.0,29.91,SSE,156,7.0,-999.0,86,-99.99,,,-99.99,,2013-01-30 08:52:00,
2013-01-30 04:02:00,63.0,59.0,29.90,SSE,161,6.0,-999.0,87,-99.99,,,-99.99,,2013-01-30 09:02:00,
2013-01-30 04:11:00,63.0,59.0,29.90,SSE,161,6.0,-999.0,87,-99.99,,,-99.99,,2013-01-30 09:11:00,
2013-01-30 04:22:00,63.0,59.0,29.89,SSE,150,8.0,-999.0,87,-99.99,,,-99.99,,2013-01-30 09:22:00,
2013-01-30 04:32:00,63.0,59.0,29.88,South,169,7.0,-999.0,87,-99.99,,,-99.99,,2013-01-30 09:32:00,
2013-01-30 04:42:00,63.0,59.0,29.88,South,169,7.0,-999.0,87,-99.99,,,-99.99,,2013-01-30 09:42:00,
2013-01-30 04:52:00,63.0,59.0,29.88,SSE,156,7.0,-999.0,87,-99.99,,,-99.99,,2013-01-30 09:52:00,
2013-01-30 05:01:00,63.0,59.0,29.88,South,169,7.0,-999.0,86,-99.99,,,-99.99,,2013-01-30 10:01:00,
2013-01-30 05:12:00,63.0,59.0,29.88,South,169,7.0,-999.0,86,-99.99,,,-99.99,,2013-01-30 10:12:00,
2013-01-30 05:21:00,64.0,59.0,29.86,SE,140,7.0,-999.0,85,-99.99,,,-99.99,,2013-01-30 10:21:00,
2013-01-30 05:32:00,64.0,59.0,29.86,SSE,159,8.0,-999.0,85,-99.99,,,-99.99,,2013-01-30 10:32:00,
2013-01-30 05:42:00,64.0,59.0,29.86,SSE,159,8.0,-999.0,85,-99.99,,,-99.99,,2013-01-30 10:42:00,
2013-01-30 05:52:00,64.0,59.0,29.85,SSE,147,7.0,-999.0,85,-99.99,,,-99.99,,2013-01-30 10:52:00,
2013-01-30 06:02:00,64.0,59.0,29.85,SSE,164,9.0,-999.0,85,-99.99,,,-99.99,,2013-01-30 11:02:00,
2013-01-30 06:11:00,64.0,59.0,29.85,SSE,164,9.0,-999.0,85,-99.99,,,-99.99,,2013-01-30 11:11:00,
2013-01-30 06:22:00,64.0,59.0,29.86,SSE,161,7.0,-999.0,85,-99.99,,,-99.99,,2013-01-30 11:22:00,
2013-01-30 06:33:00,63.0,59.0,29.85,SE,144,8.0,-999.0,86,-99.99,,,-99.99,,2013-01-30 11:33:00,
2013-01-30 06:42:00,63.0,59.0,29.85,SE,144,8.0,-999.0,86,-99.99,,,-99.99,,2013-01-30 11:42:00,
2013-01-30 06:52:00,63.0,59.0,29.84,SSE,157,7.0,-999.0,86,-99.99,,,-99.99,,2013-01-30 11:52:00,
2013-01-30 07:02:00,63.0,59.0,29.84,South,173,9.0,-999.0,87,-99.99,,,-99.99,,2013-01-30 12:02:00,
2013-01-30 07:12:00,63.0,59.0,29.84,South,173,9.0,-999.0,87,-99.99,,,-99.99,,2013-01-30 12:12:00,
2013-01-30 07:22:00,63.0,59.0,29.84,SSW,192,9.0,-999.0,87,-99.99,,,-99.99,,2013-01-30 12:22:00,
2013-01-30 07:33:00,63.0,59.0,29.83,SW,214,9.0,-999.0,87,-99.99,,,-99.99,,2013-01-30 12:33:00,
2013-01-30 07:43:00,63.0,59.0,29.83,SW,214,9.0,-999.0,87,-99.99,,,-99.99,,2013-01-30 12:43:00,
2013-01-30 08:03:00,64.0,60.0,29.82,SSE,157,10.0,-999.0,87,-99.99,,,-99.99,,2013-01-30 13:03:00,
2013-01-30 08:12:00,64.0,60.0,29.82,SSE,157,10.0,-999.0,87,-99.99,,,-99.99,,2013-01-30 13:12:00,
2013-01-30 08:23:00,64.0,60.0,29.81,SE,140,9.0,-999.0,87,-99.99,,,-99.99,,2013-01-30 13:23:00,
2013-01-30 08:33:00,64.0,60.0,29.81,SSE,168,10.0,-999.0,86,-99.99,,,-99.99,,2013-01-30 13:33:00,
2013-01-30 08:43:00,64.0,60.0,29.81,SSE,168,10.0,-999.0,86,-99.99,,,-99.99,,2013-01-30 13:43:00,
2013-01-30 08:53:00,64.0,60.0,29.80,SSE,161,8.0,-999.0,86,-99.99,,,-99.99,,2013-01-30 13:53:00,
2013-01-30 09:03:00,65.0,60.0,29.80,SE,131,11.0,-999.0,85,-99.99,,,-99.99,,2013-01-30 14:03:00,
2013-01-30 09:12:00,65.0,60.0,29.80,SE,131,11.0,-999.0,85,-99.99,,,-99.99,,2013-01-30 14:12:00,
2013-01-30 09:23:00,65.0,60.0,29.80,SE,142,9.0,-999.0,85,-99.99,,,-99.99,,2013-01-30 14:23:00,
2013-01-30 09:33:00,66.0,61.0,29.80,South,184,12.0,-999.0,84,-99.99,,,-99.99,,2013-01-30 14:33:00,
2013-01-30 09:42:00,66.0,61.0,29.80,South,184,12.0,-999.0,84,-99.99,,,-99.99,,2013-01-30 14:42:00,
2013-01-30 09:53:00,66.0,61.0,29.80,South,175,13.0,-999.0,84,-99.99,,,-99.99,,2013-01-30 14:53:00,
2013-01-30 10:03:00,66.0,61.0,29.79,ESE,123,13.0,-999.0,83,-99.99,,,-99.99,,2013-01-30 15:03:00,
2013-01-30 10:12:00,66.0,61.0,29.79,ESE,123,13.0,-999.0,83,-99.99,,,-99.99,,2013-01-30 15:12:00,
2013-01-30 10:23:00,67.0,61.0,29.77,SSE,157,11.0,-999.0,81,-99.99,,,-99.99,,2013-01-30 15:23:00,
2013-01-30 10:33:00,67.0,60.0,29.77,SE,133,15.0,-999.0,79,-99.99,,,-99.99,,2013-01-30 15:33:00,
2013-01-30 10:43:00,67.0,60.0,29.77,SE,133,15.0,-999.0,79,-99.99,,,-99.99,,2013-01-30 15:43:00,
2013-01-30 10:53:00,67.0,60.0,29.77,SSE,151,10.0,-999.0,79,-99.99,,,-99.99,,2013-01-30 15:53:00,
2013-01-30 11:03:00,68.0,61.0,29.76,South,184,13.0,-999.0,78,-99.99,,,-99.99,,2013-01-30 16:03:00,
2013-01-30 11:12:00,68.0,61.0,29.76,South,184,13.0,-999.0,78,-99.99,,,-99.99,,2013-01-30 16:12:00,
2013-01-30 11:23:00,68.0,61.0,29.76,South,175,8.0,-999.0,78,-99.99,,,-99.99,,2013-01-30 16:23:00,
2013-01-30 11:32:00,67.0,60.0,29.75,SSE,159,9.0,-999.0,79,-99.99,,,-99.99,,2013-01-30 16:32:00,
2013-01-30 11:42:00,67.0,60.0,29.75,SSE,159,9.0,-999.0,79,-99.99,,,-99.99,,2013-01-30 16:42:00,
2013-01-30 11:52:00,67.0,60.0,29.75,SSE,159,9.0,-999.0,79,-99.99,,,-99.99,,2013-01-30 16:52:00,
2013-01-30 12:02:00,68.0,61.0,29.72,SSE,161,9.0,-999.0,79,-99.99,,,-99.99,,2013-01-30 17:02:00,
2013-01-30 12:13:00,68.0,61.0,29.72,SSE,161,9.0,-999.0,79,-99.99,,,-99.99,,2013-01-30 17:13:00,
2013-01-30 12:23:00,68.0,61.0,29.71,South,188,9.0,-999.0,79,-99.99,,,-99.99,,2013-01-30 17:23:00,
2013-01-30 12:33:00,68.0,61.0,29.70,SSE,154,10.0,-999.0,79,-99.99,,,-99.99,,2013-01-30 17:33:00,
2013-01-30 12:43:00,68.0,61.0,29.70,SSE,154,10.0,-999.0,79,-99.99,,,-99.99,,2013-01-30 17:43:00,
2013-01-30 12:53:00,68.0,61.0,29.69,South,186,8.0,-999.0,79,-99.99,,,-99.99,,2013-01-30 17:53:00,
2013-01-30 13:03:00,68.0,61.0,29.68,South,173,10.0,-999.0,79,-99.99,,,-99.99,,2013-01-30 18:03:00,
2013-01-30 13:13:00,68.0,61.0,29.68,South,173,10.0,-999.0,79,-99.99,,,-99.99,,2013-01-30 18:13:00,
2013-01-30 13:23:00,68.0,62.0,29.66,SSW,196,11.0,-999.0,80,-99.99,,,-99.99,,2013-01-30 18:23:00,
2013-01-30 13:33:00,67.0,61.0,29.64,SSW,192,9.0,-999.0,81,-99.99,,,-99.99,,2013-01-30 18:33:00,
2013-01-30 13:43:00,67.0,61.0,29.64,SSW,192,9.0,-999.0,81,-99.99,,,-99.99,,2013-01-30 18:43:00,
2013-01-30 13:53:00,68.0,62.0,29.63,SSW,197,11.0,-999.0,80,-99.99,,,-99.99,,2013-01-30 18:53:00,
2013-01-30 14:03:00,68.0,61.0,29.62,SSE,151,9.0,-999.0,79,-99.99,,,-99.99,,2013-01-30 19:03:00,
2013-01-30 14:13:00,68.0,61.0,29.62,SSE,151,9.0,-999.0,79,-99.99,,,-99.99,,2013-01-30 19:13:00,
2013-01-30 14:22:00,68.0,62.0,29.61,South,180,10.0,-999.0,80,-99.99,,,-99.99,,2013-01-30 19:22:00,
2013-01-30 14:33:00,68.0,62.0,29.60,SSE,165,8.0,-999.0,80,-99.99,,,-99.99,,2013-01-30 19:33:00,
2013-01-30 14:43:00,68.0,62.0,29.60,SSE,165,8.0,-999.0,80,-99.99,,,-99.99,,2013-01-30 19:43:00,
2013-01-30 14:53:00,69.0,62.0,29.58,SSW,205,10.0,-999.0,78,-99.99,,,-99.99,,2013-01-30 19:53:00,
2013-01-30 15:03:00,69.0,62.0,29.57,SE,144,12.0,-999.0,78,-99.99,,,-99.99,,2013-01-30 20:03:00,
2013-01-30 15:12:00,69.0,62.0,29.57,SE,144,12.0,-999.0,78,-99.99,,,-99.99,,2013-01-30 20:12:00,
2013-01-30 15:22:00,69.0,62.0,29.55,SSE,153,11.0,-999.0,78,-99.99,,,-99.99,,2013-01-30 20:22:00,
2013-01-30 15:33:00,69.0,62.0,29.53,SE,130,10.0,-999.0,78,-99.99,,,-99.99,,2013-01-30 20:33:00,
2013-01-30 15:42:00,69.0,62.0,29.53,SE,130,10.0,-999.0,78,-99.99,,,-99.99,,2013-01-30 20:42:00,
2013-01-30 15:53:00,69.0,61.0,29.52,SSE,165,10.0,-999.0,77,-99.99,,,-99.99,,2013-01-30 20:53:00,
2013-01-30 16:03:00,70.0,62.0,29.52,SE,146,12.0,-999.0,76,-99.99,,,-99.99,,2013-01-30 21:03:00,
2013-01-30 16:12:00,70.0,62.0,29.52,SE,146,12.0,-999.0,76,-99.99,,,-99.99,,2013-01-30 21:12:00,
2013-01-30 16:23:00,70.0,62.0,29.50,South,182,13.0,-999.0,77,-99.99,,,-99.99,,2013-01-30 21:23:00,
2013-01-30 16:32:00,69.0,63.0,29.50,SE,126,10.0,-999.0,80,-99.99,,,-99.99,,2013-01-30 21:32:00,
2013-01-30 16:42:00,69.0,63.0,29.50,SE,126,10.0,-999.0,80,-99.99,,,-99.99,,2013-01-30 21:42:00,
2013-01-30 16:53:00,69.0,63.0,29.50,SE,126,10.0,-999.0,80,-99.99,,,-99.99,,2013-01-30 21:53:00,
2013-01-30 17:03:00,68.0,63.0,29.47,South,169,13.0,-999.0,83,-99.99,,,-99.99,,2013-01-30 22:03:00,
2013-01-30 17:12:00,68.0,63.0,29.47,South,169,13.0,-999.0,83,-99.99,,,-99.99,,2013-01-30 22:12:00,
2013-01-30 17:22:00,66.0,62.0,29.45,SSE,161,8.0,-999.0,88,-99.99,,,-99.99,,2013-01-30 22:22:00,
2013-01-30 17:32:00,65.0,62.0,29.46,SE,138,10.0,-999.0,90,-99.99,,,-99.99,,2013-01-30 22:32:00,
2013-01-30 17:42:00,65.0,62.0,29.46,SE,138,10.0,-999.0,90,-99.99,,,-99.99,,2013-01-30 22:42:00,
2013-01-30 17:52:00,65.0,62.0,29.46,NNW,327,2.0,-999.0,91,-99.99,,,-99.99,,2013-01-30 22:52:00,
2013-01-30 18:02:00,65.0,62.0,29.46,NNW,327,2.0,-999.0,91,-99.99,,,-99.99,,2013-01-30 23:02:00,
2013-01-30 18:12:00,65.0,62.0,29.46,NNW,327,2.0,-999.0,91,-99.99,,,-99.99,,2013-01-30 23:12:00,
2013-01-30 18:22:00,62.0,60.0,29.48,SSW,201,8.0,-999.0,92,-99.99,,,-99.99,,2013-01-30 23:22:00,
2013-01-30 18:33:00,61.0,59.0,29.47,South,185,5.0,-999.0,93,-99.99,,,-99.99,,2013-01-30 23:33:00,
2013-01-30 18:42:00,61.0,59.0,29.47,South,185,5.0,-999.0,93,-99.99,,,-99.99,,2013-01-30 23:42:00,
2013-01-30 18:52:00,61.0,59.0,29.46,SSW,211,4.0,-999.0,94,-99.99,,,-99.99,,2013-01-30 23:52:00,
2013-01-30 19:02:00,61.0,59.0,29.46,SSW,211,4.0,-999.0,94,-99.99,,,-99.99,,2013-01-31 00:02:00,
2013-01-30 19:11:00,61.0,59.0,29.46,SSW,211,4.0,-999.0,94,-99.99,,,-99.99,,2013-01-31 00:11:00,
2013-01-30 19:22:00,60.0,58.0,29.45,SW,221,3.0,-999.0,94,-99.99,,,-99.99,,2013-01-31 00:22:00,
2013-01-30 19:32:00,60.0,58.0,29.48,SSE,166,4.0,-999.0,94,-99.99,,,-99.99,,2013-01-31 00:32:00,
2013-01-30 19:42:00,60.0,58.0,29.48,SSE,166,4.0,-999.0,94,-99.99,,,-99.99,,2013-01-31 00:42:00,
2013-01-30 19:53:00,60.0,58.0,29.46,South,191,3.0,-999.0,94,-99.99,,,-99.99,,2013-01-31 00:53:00,
2013-01-30 20:02:00,59.0,57.0,29.47,South,177,4.0,-999.0,94,-99.99,,,-99.99,,2013-01-31 01:02:00,
2013-01-30 20:12:00,59.0,57.0,29.47,South,177,4.0,-999.0,94,-99.99,,,-99.99,,2013-01-31 01:12:00,
2013-01-30 20:22:00,59.0,57.0,29.47,South,177,4.0,-999.0,94,-99.99,,,-99.99,,2013-01-31 01:22:00,
2013-01-30 20:32:00,57.0,53.0,29.50,NW,314,7.0,-999.0,87,-99.99,,,-99.99,,2013-01-31 01:32:00,
2013-01-30 20:42:00,57.0,53.0,29.50,NW,314,7.0,-999.0,87,-99.99,,,-99.99,,2013-01-31 01:42:00,
2013-01-30 20:53:00,55.0,52.0,29.51,SW,219,5.0,-999.0,88,-99.99,,,-99.99,,2013-01-31 01:53:00,
2013-01-30 21:01:00,55.0,52.0,29.54,SW,221,5.0,-999.0,89,-99.99,,,-99.99,,2013-01-31 02:01:00,
2013-01-30 21:12:00,55.0,52.0,29.54,SW,221,5.0,-999.0,89,-99.99,,,-99.99,,2013-01-31 02:12:00,
2013-01-30 21:22:00,54.0,51.0,29.51,SSE,166,4.0,-999.0,89,-99.99,,,-99.99,,2013-01-31 02:22:00,
2013-01-30 21:32:00,53.0,49.0,29.52,SW,221,4.0,-999.0,87,-99.99,,,-99.99,,2013-01-31 02:32:00,
2013-01-30 21:42:00,53.0,49.0,29.52,SW,221,4.0,-999.0,87,-99.99,,,-99.99,,2013-01-31 02:42:00,
2013-01-30 21:52:00,53.0,49.0,29.52,SW,221,4.0,-999.0,87,-99.99,,,-99.99,,2013-01-31 02:52:00,
2013-01-30 22:03:00,51.0,48.0,29.55,South,171,6.0,-999.0,89,-99.99,,,-99.99,,2013-01-31 03:03:00,
2013-01-30 22:11:00,51.0,48.0,29.55,South,171,6.0,-999.0,89,-99.99,,,-99.99,,2013-01-31 03:11:00,
2013-01-30 22:22:00,49.0,46.0,29.56,SW,217,5.0,-999.0,89,-99.99,,,-99.99,,2013-01-31 03:22:00,
2013-01-30 22:32:00,48.0,46.0,29.53,South,173,5.0,-999.0,92,-99.99,,,-99.99,,2013-01-31 03:32:00,
2013-01-30 22:42:00,48.0,46.0,29.53,South,173,5.0,-999.0,92,-99.99,,,-99.99,,2013-01-31 03:42:00,
2013-01-30 22:51:00,48.0,44.0,29.55,South,180,5.0,-999.0,87,-99.99,,,-99.99,,2013-01-31 03:51:00,
2013-01-30 23:02:00,48.0,44.0,29.57,SSE,153,8.0,-999.0,86,-99.99,,,-99.99,,2013-01-31 04:02:00,
2013-01-30 23:11:00,48.0,44.0,29.57,SSE,153,8.0,-999.0,86,-99.99,,,-99.99,,2013-01-31 04:11:00,
2013-01-30 23:22:00,47.0,43.0,29.58,South,169,5.0,-999.0,87,-99.99,,,-99.99,,2013-01-31 04:22:00,
2013-01-30 23:32:00,47.0,44.0,29.56,South,185,7.0,-999.0,89,-99.99,,,-99.99,,2013-01-31 04:32:00,
2013-01-30 23:42:00,47.0,44.0,29.56,South,185,7.0,-999.0,89,-99.99,,,-99.99,,2013-01-31 04:42:00,
2013-01-30 23:51:00,47.0,44.0,29.57,SSE,165,5.0,-999.0,90,-99.99,,,-99.99,,2013-01-31 04:51:00,